{"data":{"norad_id":51124,"intl_designator":"2022-005W","name":"STARLINK-3389","alt_names":[],"object_type":"PAYLOAD","status":"ACTIVE","operator":null,"country":"US","launch_date":"2022-01-19","launch_site_code":"AFETR","launch_vehicle":null,"mission":null,"orbit_class":"UNKNOWN","rcs_meters":null,"size_class":null,"mass_kg":null,"dimensions":null,"purposes":["comms"],"wikipedia_slug":null,"has_3d_model":false,"image_url":null,"decayed_at":null,"tle_current":{"epoch":"2026-05-25T04:50:29.205024Z","epoch_age_seconds":68324,"freshness":"FRESH","line1":"1 51124U 22005W   26145.20172691 -.00000069  00000+0  13757-4 0  9990","line2":"2 51124  53.2144 315.6442 0001280  93.9403 266.1735 15.08841414240291","mean_motion":15.08841414,"eccentricity":0.000128,"inclination_deg":53.2144,"raan_deg":315.6442,"arg_perigee_deg":93.9403,"mean_anomaly_deg":266.1735,"bstar":1.3757e-5,"rev_number":24029,"period_min":95.43746523914,"perigee_km":538.85357879859,"apogee_km":540.62455507172,"semimajor_km":6917.8760669352,"source":"CELESTRAK","updated_at":"2026-05-25T13:38:16.910433Z"}}}